User: anonymous   Login
Location: Ermatingen
(47.6706°N, 9.0857°E)
Time: 08:04:02
(UTC+00:00)
Language:

Cosmos 1428 Rocket - Orbit

View from above orbital plane
View from above orbital plane
View from above satellite
View from above satellite

Ground track
Ground track

The orbit data is extracted from the following two-line orbital elements,

1 13758U 83001B   22267.71801088  .00000160  00000-0  14189-3 0  9991
2 13758  82.9095 306.2882 0026724 342.1176  17.9039 13.78869492996733
Epoch (UTC): 24 September 2022 17:13:56
Eccentricity: 0.0026724
inclination: 82.9095°
perigee height: 948 km
apogee height: 987 km
right ascension of ascending node: 306.2882°
argument of perigee: 342.1176°
revolutions per day: 13.78869492
mean anomaly at epoch: 17.9039°
orbit number at epoch: 99673

The dashed part of the orbit path shows where the satellite is in the earth's shadow,  

DLR